Location: Chantarel
(45.1638°N, 1.7873°E)
Time: 18:11:37
(UTC+00:00)

FALCON 9 DEB - Pass Details

Date: 03 March 2021
Orbit: 424 x 435 km, 53.0° (Epoch: 15 April)

Event Time Altitude Azimuth Distance (km) Brightness Sun altitude
Rises 18:18:00 0° 303° (WNW) 2,406 7.9 -7.0°
Reaches altitude 10° 18:20:15 10° 313° (NW) 1,535 6.6 -7.4°
Maximum altitude 18:23:26 34° 20° (NNE) 726 4.1 -7.9°
Enters shadow 18:26:21 12° 86° (E) 1,430 5.1 -8.4°
